Regional Weather Roundup
Issued by NWS

Home | Current Version | Previous Version | Graphics & Text | Print | Product List | Glossary On
Versions: 1 2 3 4 5 6 7 8 9 10 11 12 13 14 15 16 17 18 19 20 21 22 23 24 25 26 27 28 29 30 31 32 33 34 35 36 37 38 39 40 41 42 43 44 45 46 47 48 49 50
000
ASUS43 KDTX 201501
RWRMI
MICHIGAN HOURLY REGIONAL WEATHER ROUNDUP
NATIONAL WEATHER SERVICE DETROIT/PONTIAC MI
1000 AM EST MON FEB 20 2017

NOTE: "FAIR" INDICATES FEW OR NO CLOUDS BELOW 12,000 FEET WITH NO
SIGNIFICANT WEATHER AND/OR OBSTRUCTION TO VISIBILITY.

MIZ047>049-052>055-059>063-066>070-074>076-081>083-201600-
SOUTHEAST LOWER MICHIGAN

CITY           SKY/WX    TMP DP  RH WIND       PRES   REMARKS
ADRIAN         CLOUDY    44  34  67 E8        30.28S
ALMA           CLOUDY    41  32  70 E13       30.29R
ANN ARBOR      CLOUDY    45  32  60 E8        30.28F
BAD AXE        CLOUDY    37  32  83 SE6       30.34R WCI  32
CARO           PTSUNNY   40  33  76 E8        30.30F WCI  34
DETROIT CITY   MOSUNNY   43  33  68 E8        30.32S
DETROIT        CLOUDY    45  32  60 E6        30.31S
FLINT          CLOUDY    42  31  64 E12       30.29F
GROSSE ILE     CLOUDY    42  33  70 E6        30.30S
HILLSDALE      CLOUDY    45  34  65 E10       30.24S
HOWELL         CLOUDY    45  31  57 E9        30.27F

CITY           SKY/WX    TMP DP  RH WIND       PRES   REMARKS
JACKSON        MOSUNNY   47  33  58 SE14      30.26S
LAMBERTVILLE   CLOUDY    45  35  66 E6G16     30.29S
LANSING        MOSUNNY   47  32  56 E10       30.27S
LAPEER         FAIR      39  32  76 E6        30.31F WCI  35
MASON          PTSUNNY   46  35  66 SE7       30.27R
MONROE         SUNNY     45  34  66 E12       30.29S
MT. CLEMENS    MOSUNNY   39  34  82 NE10      30.30F WCI  32
PONTIAC        CLOUDY    41  30  65 E10       30.28F
PORT HOPE        N/A     35  32  88 SE9       30.33R WCI  28
PORT HURON     CLOUDY    39  34  81 E5        30.34S
TRI CITIES     CLOUDY    38  33  82 E7        30.31F WCI  33
MIDLAND        FAIR      39  32  73 E6        30.31R
TROY           MOSUNNY   41  29  63 E7        30.32F
SAGINAW HB     MOSUNNY   37  32  81 E7        30.30F WCI  32
$$
MIZ043>046-050>051-056>058-064>065-071>073-077>080-201600-
SOUTHWEST LOWER MICHIGAN

CITY           SKY/WX    TMP DP  RH WIND       PRES   REMARKS
BATTLE CREEK   MOSUNNY   47  35  63 SE6       30.23S
BENTON HARBOR  CLOUDY    52  38  58 SE7       30.18F
BIG RAPIDS     CLOUDY    41  30  63 SE9       30.25S
COLDWATER      MOSUNNY   49  35  59 SE9       30.23S
FREMONT        FAIR      43  30  60 E8        30.22S
HOLLAND        MOSUNNY   45  34  65 E9        30.20S
GRAND RAPIDS   CLOUDY    41  32  70 E9        30.23S
IONIA          FAIR      40  32  72 E7        30.25S
KALAMAZOO      MOSUNNY   48  33  56 SE6       30.22F
LUDINGTON      SUNNY     45  32  60 SE13      30.19F
MARSHALL       CLOUDY    48  37  64 E7        30.24R
MOUNT PLEASANT MOSUNNY   40  31  72 E8        30.28S WCI  34
MUSKEGON       CLOUDY    45  33  63 E12       30.20F
SOUTH HAVEN    CLOUDY    49  32  51 SE7       30.19S
$$
MIZ016>042-201600-
NORTHERN LOWER MICHIGAN

CITY           SKY/WX    TMP DP  RH WIND       PRES   REMARKS
ALPENA         MOSUNNY   37  29  72 SE14      30.33F WCI  28
BEAVER ISLAND  CLOUDY    38  31  78 SE10G21   30.25R WCI  30
BELLAIRE       CLOUDY    41  30  66 SE5       30.25S
CADILLAC       CLOUDY    38  30  71 SE9       30.24R WCI  32
CHARLEVOIX     CLOUDY    38  31  74 E10       30.27S WCI  31
FRANKFORT      MOSUNNY   45  32  61 SE9       30.19F
GAYLORD        SUNNY     36  28  73 SE13      30.26F WCI  27
GRAYLING       CLOUDY    36  31  83 SE7       30.28S WCI  30
HARBOR SPRINGS CLOUDY    35  31  83 E9        30.27R WCI  28
HOUGHTON LAKE  MOSUNNY   36  30  79 E9        30.27F WCI  29
MANISTEE       CLOUDY    46  31  55 SE9       30.20S
OSCODA         CLOUDY    38  31  76 E9        30.33F WCI  32
PELLSTON       CLOUDY    35  28  75 SE13      30.28F WCI  26
ROGERS CITY    MOSUNNY   37  31  80 SE10      30.33F WCI  29
TRAVERSE CITY  CLOUDY    42  30  62 SE7       30.22F
$$
MIZ007>008-015-201600-
EASTERN UPPER MICHIGAN

CITY           SKY/WX    TMP DP  RH WIND       PRES   REMARKS
KINROSS        CLOUDY    33  26  75 SE22G29   30.30S WCI  21
MACKINAC ISLAN MOSUNNY   35  31  86 E9G22     30.29S WCI  27
NEWBERRY       MOSUNNY   34  30  85 SE14G21   30.24S WCI  25
S. S. MARIE    CLOUDY    33  25  72 E13       30.32S WCI  24
MUNISING         N/A     37  29  72 S15G22    30.18R WCI  28
$$
MIZ004>006-011>014-085-201600-
CENTRAL UPPER MICHIGAN

CITY           SKY/WX    TMP DP  RH WIND       PRES   REMARKS
MANISTIQUE     CLOUDY    35  32  90 E13       30.24R WCI  26
ESCANABA       MOSUNNY   38  32  79 E14       30.19F WCI  30
MENOMINEE      MOSUNNY   40  33  76 SE7       30.17F
SAWYER-GWINN   SUNNY     34  30  86 S13       30.15F WCI  25
$$
MIZ001>003-009>011-084-201600-
WESTERN UPPER MICHIGAN

CITY           SKY/WX    TMP DP  RH WIND       PRES   REMARKS
IRON MOUNTAIN  CLOUDY    36  29  75 SE8       30.13F WCI  30
HOUGHTON       CLOUDY    37  29  72 E14       30.06F WCI  28
COPPER HARBOR    N/A     38  30  73 SW21G37   30.08S WCI  28
IRONWOOD       CLOUDY    45  32  60 SE10      29.96S
$$

ABBREVIATIONS USED IN REMARKS
   TC - TEMPERATURE IN CELSIUS
  WCI - WIND CHILL INDEX
   HX - HEAT INDEX
  VSB - VISIBILITY





USA.gov is the U.S. government's official web portal to all federal, state and local government web resources and services.